N5CSU Weather Reports


Display with metric or nautical units.
time (UTC)temp
F
wind
direction
speed
MPH
gust
MPH
rain 1hr
in
rain 24hr
in
rain mn
in
humidity
%
barometer
mb
20260509122506 68 177 0.0 0.0 0.00 0.00 0.00 97 1010.4
20260509122003 68 177 0.0 0.0 0.00 0.00 0.00 97 1010.4
20260509121459 68 177 0.0 0.0 0.00 0.00 0.00 97 1010.4
20260509120958 68 177 0.0 0.0 0.00 0.00 0.00 97 1010.3
20260509120455 68 177 0.0 0.0 0.00 0.00 0.00 97 1010.1
20260509115953 68 177 0.0 0.0 0.00 0.00 0.00 96 1010.4
20260509115450 68 178 0.0 0.0 0.00 0.00 0.00 96 1009.9
20260509114948 68 178 0.0 0.0 0.00 0.00 0.00 96 1009.8
20260509114446 68 178 0.0 0.0 0.00 0.00 0.00 96 1009.7
20260509113945 68 178 0.0 0.0 0.00 0.00 0.00 96 1009.5
20260509113442 68 178 0.0 0.0 0.00 0.00 0.00 96 1009.7
20260509112939 68 174 0.0 0.0 0.00 0.00 0.00 96 1009.7
20260509112437 68 174 0.0 0.0 0.00 0.00 0.00 96 1009.7
20260509111933 68 173 0.0 0.0 0.00 0.00 0.00 96 1009.3
20260509111431 69 173 0.0 0.0 0.00 0.00 0.00 96 1009.4
20260509110928 69 173 0.0 0.0 0.00 0.00 0.00 96 1009.3
20260509110424 69 174 0.0 0.0 0.00 0.00 0.00 96 1009.2
20260509105922 69 175 0.0 0.0 0.00 0.00 0.00 96 1009.3
20260509105420 69 175 0.0 0.0 0.00 0.00 0.00 96 1009.4
20260509104917 69 175 0.0 0.0 0.00 0.00 0.00 95 1009.2
20260509104413 69 175 0.0 0.0 0.00 0.00 0.00 95 1009.5
20260509103911 70 175 0.0 0.0 0.00 0.00 0.00 95 1009.4
20260509103408 69 175 0.0 0.0 0.00 0.00 0.00 95 1009.2
20260509102906 70 175 0.0 0.0 0.00 0.00 0.00 95 1009.3
20260509102403 70 175 0.0 0.0 0.00 0.00 0.00 95 1009.3
20260509101859 70 175 0.0 0.0 0.00 0.00 0.00 95 1009.3
20260509101355 70 175 0.0 0.0 0.00 0.00 0.00 95 1009.2
20260509100853 70 175 0.0 0.0 0.00 0.00 0.00 94 1009.1
20260509100350 70 174 0.0 0.0 0.00 0.00 0.00 94 1009.1
20260509095847 70 174 0.0 0.0 0.00 0.00 0.00 94 1008.8
20260509095345 70 172 0.0 0.0 0.00 0.00 0.00 94 1008.8
20260509094842 69 32 0.0 0.0 0.00 0.00 0.00 94 1008.5
20260509094338 70 176 0.0 0.0 0.00 0.00 0.00 94 1008.3
20260509093836 69 173 0.0 0.0 0.00 0.00 0.00 94 1008.7
20260509093333 69 112 0.0 0.0 0.00 0.00 0.00 94 1008.3
20260509092832 69 202 0.0 0.0 0.00 0.00 0.00 94 1007.5
20260509092329 69 205 0.0 0.0 0.00 0.00 0.00 94 1007.5
20260509091826 69 204 0.0 0.0 0.00 0.00 0.00 94 1007.0
20260509091324 69 196 0.0 0.0 0.00 0.00 0.00 94 1006.8
20260509090820 69 210 0.0 0.0 0.00 0.00 0.00 94 1006.7
20260509090318 69 175 0.0 0.0 0.00 0.00 0.00 94 1007.0
20260509085814 69 193 0.0 0.0 0.00 0.00 0.00 95 1006.8
20260509085313 69 178 0.0 0.0 0.00 0.00 0.00 95 1007.1
20260509084809 69 195 0.0 0.0 0.00 0.00 0.00 95 1007.5
20260509084306 69 192 0.0 0.0 0.00 0.00 0.00 95 1007.9
20260509083803 69 185 0.0 0.0 0.00 0.00 0.00 95 1008.0
20260509083300 69 190 0.0 0.0 0.00 0.00 0.00 95 1008.4
20260509082756 69 190 0.0 0.0 0.00 0.00 0.00 95 1008.8
20260509082253 69 182 0.0 0.0 0.00 0.00 0.00 95 1009.2
20260509081750 69 199 0.0 0.0 0.00 0.00 0.00 95 1009.5
20260509081248 68 185 0.0 0.0 0.00 0.00 0.00 94 1009.5
20260509080746 68 182 0.0 0.0 0.00 0.00 0.00 94 1009.7
20260509080243 69 182 0.0 0.0 0.00 0.00 0.00 94 1009.9
20260509075742 69 182 0.0 0.0 0.00 0.00 0.00 94 1009.8
20260509075238 69 182 0.0 0.0 0.00 0.00 0.00 94 1010.1
20260509074735 69 182 0.0 0.0 0.00 0.00 0.00 94 1010.0
20260509074233 69 182 0.0 0.0 0.00 0.00 0.00 94 1010.4
20260509073729 69 182 0.0 0.0 0.00 0.00 0.00 94 1010.5
20260509073225 69 182 0.0 0.0 0.00 0.00 0.00 94 1010.6
20260509072722 69 182 0.0 0.0 0.00 0.00 0.00 93 1010.6
20260509072219 69 182 0.0 0.0 0.00 0.00 0.00 94 1010.8
20260509071716 68 181 0.0 0.0 0.00 0.00 0.00 94 1011.0
20260509071213 68 192 0.0 0.0 0.00 0.00 0.00 94 1011.1
20260509070710 68 192 0.0 0.0 0.00 0.00 0.00 93 1011.1
20260509070206 68 192 0.0 0.0 0.00 0.00 0.00 93 1010.8
20260509065702 68 190 0.0 0.0 0.00 0.00 0.00 93 1010.4
20260509065158 68 185 0.0 0.0 0.00 0.00 0.00 92 1010.2
20260509064655 69 185 0.0 0.0 0.00 0.00 0.00 92 1010.2
20260509064153 69 185 0.0 0.0 0.00 0.00 0.00 92 1010.3
20260509063650 69 185 0.0 0.0 0.00 0.00 0.00 92 1010.4
20260509063146 69 185 0.0 0.0 0.00 0.00 0.00 92 1010.7
20260509062644 69 185 0.0 0.0 0.00 0.00 0.00 91 1010.6
20260509062141 69 186 0.0 0.0 0.00 0.00 0.00 91 1010.6
20260509061637 69 186 0.0 0.0 0.00 0.00 0.00 91 1010.6
20260509061135 69 186 0.0 0.0 0.00 0.00 0.00 91 1010.8
20260509060632 70 171 0.0 0.0 0.00 0.00 0.00 91 1010.8
20260509060128 70 171 0.0 0.0 0.00 0.00 0.00 90 1011.0
20260509055624 70 171 0.0 0.0 0.00 0.00 0.00 90 1011.1
20260509055120 70 171 0.0 0.0 0.00 0.00 0.00 90 1011.1
20260509054617 70 170 0.0 0.0 0.00 0.00 0.00 90 1011.3
20260509054115 70 170 0.0 0.0 0.00 0.00 0.00 90 1011.6
20260509053613 70 170 0.0 0.0 0.00 0.00 0.00 89 1011.8
20260509053110 70 170 0.0 0.0 0.00 0.00 0.00 89 1011.5
20260509052608 71 180 0.0 0.0 0.00 0.00 0.00 89 1011.1
20260509052105 71 180 0.0 0.0 0.00 0.00 0.00 88 1010.6
20260509051603 71 180 0.0 0.0 0.00 0.00 0.00 88 1010.3
20260509051100 71 169 0.0 0.0 0.00 0.00 0.00 87 1010.4
20260509050556 71 191 0.0 0.0 0.00 0.00 0.00 87 1010.2
20260509050053 72 174 0.0 0.0 0.00 0.00 0.00 87 1010.3
20260509045551 72 172 0.0 0.0 0.00 0.00 0.00 87 1010.5
20260509045047 72 172 0.0 0.0 0.00 0.00 0.00 86 1010.6
20260509044545 71 193 0.0 0.0 0.00 0.00 0.00 87 1010.2
20260509044042 71 191 0.0 0.0 0.00 0.00 0.00 87 1010.2
20260509043538 71 195 0.0 0.0 0.00 0.00 0.00 87 1010.1
20260509043034 71 201 0.0 0.0 0.00 0.00 0.00 87 1010.4
20260509042530 71 177 0.0 0.0 0.00 0.00 0.00 87 1010.5
20260509042026 71 177 0.0 0.0 0.00 0.00 0.00 86 1010.5
20260509041523 72 177 0.0 0.0 0.00 0.00 0.00 86 1010.7
20260509041021 72 177 0.0 0.0 0.00 0.00 0.00 86 1011.0
20260509040519 72 177 0.0 0.0 0.00 0.00 0.00 86 1011.0
20260509040016 72 173 0.0 0.0 0.00 0.00 0.00 85 1011.0
20260509035513 72 171 0.0 0.0 0.00 0.00 0.00 85 1010.9
20260509035009 72 171 0.0 0.0 0.00 0.00 0.00 85 1010.7
20260509034507 72 169 0.0 0.0 0.00 0.00 0.00 85 1010.5
20260509033958 72 149 0.0 0.0 0.00 0.00 0.00 85 1010.1
20260509033455 72 201 0.0 0.0 0.00 0.00 0.00 85 1010.0
20260509032952 72 190 0.0 0.0 0.00 0.00 0.00 84 1010.3
20260509032449 72 190 0.0 0.0 0.00 0.00 0.00 84 1010.3
20260509031947 72 191 0.0 0.0 0.00 0.00 0.00 84 1010.2
20260509031444 72 191 0.0 0.0 0.00 0.00 0.00 84 1010.3
20260509030941 72 200 0.0 0.0 0.00 0.00 0.00 84 1010.1
20260509030439 72 189 0.0 0.0 0.00 0.00 0.00 84 1010.1
20260509025936 72 189 0.0 0.0 0.00 0.00 0.00 84 1010.0
20260509025432 71 188 0.0 0.0 0.00 0.00 0.00 84 1009.9
20260509024927 71 180 0.0 0.0 0.00 0.00 0.00 84 1009.9
20260509024423 71 192 0.0 0.0 0.00 0.00 0.00 84 1009.5
20260509023920 71 191 0.0 0.0 0.00 0.00 0.00 84 1009.4
20260509023418 71 197 0.0 0.0 0.00 0.00 0.00 83 1009.4
20260509022914 71 197 0.0 0.0 0.00 0.00 0.00 83 1009.5
20260509022411 72 198 0.0 0.0 0.00 0.00 0.00 83 1009.4
20260509021909 72 195 0.0 0.0 0.00 0.00 0.00 83 1009.5
20260509021405 72 181 0.0 0.0 0.00 0.00 0.00 83 1009.2
20260509020903 72 194 0.0 0.0 0.00 0.00 0.00 82 1009.2
20260509020401 72 194 0.0 0.0 0.00 0.00 0.00 82 1009.2
20260509015857 72 194 0.0 0.0 0.00 0.00 0.00 82 1009.1
20260509015356 72 194 0.0 0.0 0.00 0.00 0.00 82 1009.3
20260509014852 72 196 0.0 0.0 0.00 0.00 0.00 82 1009.5
20260509014349 72 197 0.0 0.0 0.00 0.00 0.00 82 1009.3
20260509013846 72 195 0.0 0.0 0.00 0.00 0.00 82 1009.3
20260509013342 72 196 0.0 0.0 0.00 0.00 0.00 81 1009.2
20260509012838 72 195 0.0 0.0 0.00 0.00 0.00 81 1009.3
20260509012335 72 195 0.0 0.0 0.00 0.00 0.00 81 1009.3
20260509011833 73 195 0.0 0.0 0.00 0.00 0.00 80 1009.2
20260509011330 73 195 0.0 0.0 0.00 0.00 0.00 80 1009.1
20260509010827 73 188 0.0 0.0 0.00 0.00 0.00 80 1009.0
20260509010324 73 191 0.0 0.0 0.00 0.00 0.00 80 1008.7
20260509005821 73 197 0.0 0.0 0.00 0.00 0.00 80 1008.4
20260509005319 73 189 0.0 0.0 0.00 0.00 0.00 80 1008.5
20260509004814 73 193 0.0 0.0 0.00 0.00 0.00 80 1008.5
20260509004310 73 187 0.0 0.0 0.00 0.00 0.00 80 1008.3
20260509003809 73 196 0.0 0.0 0.00 0.00 0.00 79 1008.7
20260509003306 73 187 0.0 0.0 0.00 0.00 0.00 79 1008.7
20260509002803 73 187 0.0 0.0 0.00 0.00 0.00 79 1008.7
20260509002300 73 192 0.0 0.0 0.00 0.00 0.00 79 1008.5
20260509001758 73 191 0.0 0.0 0.00 0.00 0.00 78 1008.8
20260509001254 73 179 0.0 0.0 0.00 0.00 0.00 78 1008.7
20260509000752 73 182 0.0 0.0 0.00 0.00 0.00 78 1008.7
20260509000249 73 194 0.0 0.0 0.00 0.00 0.00 78 1008.8
20260508235746 73 189 0.0 0.0 0.00 0.00 0.00 78 1008.7
20260508235242 73 203 0.0 0.0 0.00 0.00 0.00 77 1008.9
20260508234740 73 197 0.0 0.0 0.00 0.00 0.00 77 1009.0
20260508234235 73 195 0.0 0.0 0.00 0.00 0.00 77 1009.1
20260508233730 73 192 0.0 0.0 0.00 0.00 0.00 77 1009.0
20260508233227 73 181 0.0 0.0 0.00 0.00 0.00 77 1009.1
20260508232724 74 186 0.0 0.0 0.00 0.00 0.00 76 1009.1
20260508232221 74 185 0.0 0.0 0.00 0.00 0.00 76 1009.0
20260508231719 74 183 0.0 0.0 0.00 0.00 0.00 75 1009.0
20260508231215 74 193 0.0 0.0 0.00 0.00 0.00 75 1009.1
20260508230713 74 173 0.0 0.0 0.00 0.00 0.00 76 1008.8
20260508230208 74 178 0.0 1.0 0.00 0.00 0.00 75 1009.1
20260508225707 74 183 0.0 0.0 0.00 0.00 0.00 74 1009.2
20260508225202 74 195 0.0 0.0 0.00 0.00 0.00 74 1009.0
20260508224701 74 210 0.0 0.0 0.00 0.00 0.00 73 1009.1
20260508224158 74 193 0.0 0.0 0.00 0.00 0.00 74 1009.3
20260508223655 74 190 0.0 0.0 0.00 0.00 0.00 74 1009.1
20260508223152 74 185 0.0 0.0 0.00 0.00 0.00 74 1009.3
20260508222650 74 166 0.0 0.0 0.00 0.00 0.00 73 1009.2
20260508222147 74 199 0.0 0.0 0.00 0.00 0.00 73 1009.4
20260508221643 74 192 0.0 0.0 0.00 0.00 0.00 73 1009.2
20260508221139 74 239 0.0 0.0 0.00 0.00 0.00 74 1009.1
20260508220636 74 181 0.0 0.0 0.00 0.00 0.00 74 1009.2
20260508220132 74 200 0.0 0.0 0.00 0.00 0.00 74 1009.2
20260508215629 74 193 0.0 0.0 0.00 0.00 0.00 73 1009.3
20260508215126 74 205 0.0 0.0 0.00 0.00 0.00 72 1009.2
20260508214623 74 195 0.0 0.0 0.00 0.00 0.00 75 1009.3
20260508214120 74 203 0.0 0.0 0.00 0.00 0.00 73 1009.0
20260508213616 73 197 0.0 0.0 0.00 0.00 0.00 75 1009.1
20260508213113 73 167 0.0 0.0 0.00 0.00 0.00 77 1009.1
20260508212609 72 209 0.0 0.0 0.00 0.00 0.00 78 1008.9
20260508212106 71 199 0.0 0.0 0.00 0.00 0.00 81 1009.2
20260508211601 70 207 0.0 0.0 0.00 0.00 0.00 81 1009.4
20260508211057 70 174 0.0 0.0 0.00 0.00 0.00 85 1008.8
20260508210554 71 173 0.0 0.0 0.00 0.00 0.00 81 1010.0
20260508210051 72 242 0.0 0.0 0.00 0.00 0.00 77 1009.9
20260508205549 72 189 0.0 0.0 0.00 0.00 0.00 77 1010.2
20260508205045 72 189 0.0 0.0 0.00 0.00 0.00 76 1010.7
20260508204541 72 189 0.0 0.0 0.00 0.00 0.00 76 1010.7
20260508204037 72 189 0.0 0.0 0.00 0.00 0.00 76 1010.9
20260508203534 72 185 0.0 0.0 0.00 0.00 0.00 77 1011.1
20260508203030 72 175 0.0 0.0 0.00 0.00 0.00 75 1011.3
20260508202527 73 199 0.0 0.0 0.00 0.00 0.00 75 1011.2
20260508202024 73 194 0.0 0.0 0.00 0.00 0.00 76 1011.2
20260508201520 73 194 0.0 0.0 0.00 0.00 0.00 75 1011.2
20260508201017 73 190 0.0 0.0 0.00 0.00 0.00 74 1011.0
20260508200514 73 196 0.0 0.0 0.00 0.00 0.00 74 1011.0
20260508200010 74 189 0.0 0.0 0.00 0.00 0.00 74 1011.0
20260508195507 74 172 0.0 0.0 0.00 0.00 0.00 73 1010.9
20260508195003 74 185 0.0 0.0 0.00 0.00 0.00 75 1010.9
20260508194500 74 185 0.0 0.0 0.00 0.00 0.00 75 1010.8
20260508193957 74 184 0.0 0.0 0.00 0.00 0.00 71 1011.1
20260508193453 74 210 0.0 0.0 0.00 0.00 0.00 72 1011.2
20260508192950 74 202 0.0 0.0 0.00 0.00 0.00 70 1011.2
20260508192447 75 192 0.0 0.0 0.00 0.00 0.00 71 1011.2
20260508191943 75 197 0.0 0.0 0.00 0.00 0.00 71 1011.2
20260508191441 75 194 0.0 0.0 0.00 0.00 0.00 72 1011.3
20260508190937 75 180 1.0 2.0 0.00 0.00 0.00 71 1011.3
20260508190435 75 177 0.0 0.0 0.00 0.00 0.00 71 1011.3
20260508185931 75 192 0.0 0.0 0.00 0.00 0.00 71 1011.6
20260508185429 75 147 0.0 0.0 0.00 0.00 0.00 70 1011.6
20260508184926 75 173 0.0 1.0 0.00 0.00 0.00 70 1011.5
20260508184423 75 139 0.0 1.0 0.00 0.00 0.00 70 1011.5
20260508183919 75 197 0.0 0.0 0.00 0.00 0.00 69 1011.7
20260508183416 75 195 0.0 0.0 0.00 0.00 0.00 67 1011.8
20260508182911 76 195 0.0 0.0 0.00 0.00 0.00 67 1011.7
20260508182409 76 168 0.0 1.0 0.00 0.00 0.00 70 1011.5
20260508181904 76 168 0.0 0.0 0.00 0.00 0.00 67 1011.8
20260508181401 76 196 0.0 1.0 0.00 0.00 0.00 68 1011.9
20260508180858 75 201 0.0 0.0 0.00 0.00 0.00 67 1012.1
20260508180354 75 189 0.0 0.0 0.00 0.00 0.00 71 1012.1
20260508175845 75 189 0.0 0.0 0.00 0.00 0.00 69 1012.1
20260508175342 75 204 0.0 0.0 0.00 0.00 0.00 68 1012.3
20260508174840 75 178 0.0 0.0 0.00 0.00 0.00 67 1012.6
20260508174337 75 192 0.0 0.0 0.00 0.00 0.00 67 1012.5
20260508173834 75 198 0.0 0.0 0.00 0.00 0.00 70 1012.4
20260508173331 74 194 0.0 1.0 0.00 0.00 0.00 67 1012.8
20260508172827 73 172 0.0 1.0 0.00 0.00 0.00 71 1012.9
20260508172324 73 177 0.0 1.0 0.00 0.00 0.00 69 1012.9
20260508171820 73 182 0.0 0.0 0.00 0.00 0.00 72 1012.8
20260508171316 73 204 2.0 2.0 0.00 0.00 0.00 68 1012.8
20260508170813 73 255 1.0 1.0 0.00 0.00 0.00 68 1012.9
20260508170312 73 196 0.0 0.0 0.00 0.00 0.00 68 1013.0
20260508165808 73 204 0.0 0.0 0.00 0.00 0.00 69 1013.2
20260508165307 73 202 0.0 0.0 0.00 0.00 0.00 69 1013.4
20260508164801 72 196 0.0 0.0 0.00 0.00 0.00 70 1013.7
20260508164258 72 180 0.0 1.0 0.00 0.00 0.00 70 1013.7
20260508163756 72 185 0.0 0.0 0.00 0.00 0.00 70 1013.9
20260508163254 72 176 0.0 0.0 0.00 0.00 0.00 69 1014.0
20260508162749 73 191 0.0 0.0 0.00 0.00 0.00 69 1013.7
20260508162246 72 197 0.0 1.0 0.00 0.00 0.00 70 1014.0
20260508161743 72 199 0.0 0.0 0.00 0.00 0.00 68 1014.0
20260508161240 72 194 0.0 0.0 0.00 0.00 0.00 70 1014.1
20260508160738 72 201 0.0 0.0 0.00 0.00 0.00 69 1014.1
20260508160236 71 184 0.0 1.0 0.00 0.00 0.00 71 1014.3
20260508155727 71 4 0.0 0.0 0.00 0.00 0.00 70 1014.2
20260508155224 71 210 0.0 0.0 0.00 0.00 0.00 70 1014.3
20260508154720 71 198 0.0 0.0 0.00 0.00 0.00 72 1014.3
20260508154218 70 188 0.0 0.0 0.00 0.00 0.00 72 1014.6
20260508153715 70 179 0.0 1.0 0.00 0.00 0.00 72 1014.5
20260508153212 69 194 0.0 0.0 0.00 0.00 0.00 73 1014.4
20260508152708 68 179 0.0 0.0 0.00 0.00 0.00 72 1014.7
20260508152204 68 202 0.0 0.0 0.00 0.00 0.00 75 1014.7
20260508151701 68 202 0.0 0.0 0.00 0.00 0.00 72 1014.8
20260508151157 68 170 0.0 0.0 0.00 0.00 0.00 72 1014.8
20260508150654 68 185 0.0 0.0 0.00 0.00 0.00 73 1014.8
20260508150151 68 201 0.0 0.0 0.00 0.00 0.00 72 1014.7
20260508145647 68 183 0.0 0.0 0.00 0.00 0.00 72 1014.5
20260508145143 68 200 0.0 0.0 0.00 0.00 0.00 73 1014.5
20260508144641 68 203 0.0 0.0 0.00 0.00 0.00 72 1014.6
20260508144138 68 198 0.0 0.0 0.00 0.00 0.00 72 1014.4
20260508143635 67 199 0.0 0.0 0.00 0.00 0.00 74 1014.6
20260508143132 67 207 0.0 0.0 0.00 0.00 0.00 75 1014.6
20260508142628 67 196 0.0 0.0 0.00 0.00 0.00 74 1014.8
20260508142125 67 198 0.0 0.0 0.00 0.00 0.00 73 1014.7
20260508141622 67 196 0.0 0.0 0.00 0.00 0.00 74 1014.8
20260508141120 67 181 0.0 1.0 0.00 0.00 0.00 74 1015.1
20260508140617 66 186 0.0 0.0 0.00 0.00 0.00 76 1015.1
20260508140114 66 167 0.0 0.0 0.00 0.00 0.00 75 1014.9
20260508135609 66 176 0.0 0.0 0.00 0.00 0.00 76 1014.9
20260508135105 65 188 0.0 0.0 0.00 0.00 0.00 77 1014.8
20260508134602 65 197 0.0 0.0 0.00 0.00 0.00 77 1015.0
20260508134059 64 204 0.0 0.0 0.00 0.00 0.00 80 1015.0
20260508133555 64 189 0.0 0.0 0.00 0.00 0.00 83 1015.1
20260508133053 64 175 0.0 0.0 0.00 0.00 0.00 83 1014.7
20260508132545 63 185 0.0 0.0 0.00 0.00 0.00 84 1014.8
20260508132042 61 173 0.0 0.0 0.00 0.00 0.00 88 1014.8
20260508131537 61 194 0.0 0.0 0.00 0.00 0.00 93 1015.0
20260508131033 61 192 0.0 0.0 0.00 0.00 0.00 94 1014.9
20260508130531 60 192 0.0 0.0 0.00 0.00 0.00 94 1015.1
20260508130027 60 192 0.0 0.0 0.00 0.00 0.00 95 1015.3
20260508125523 60 192 0.0 0.0 0.00 0.00 0.00 95 1015.1
20260508125021 59 192 0.0 0.0 0.00 0.00 0.00 95 1015.3
20260508124519 59 193 0.0 0.0 0.00 0.00 0.00 94 1015.3
20260508124016 59 193 0.0 0.0 0.00 0.00 0.00 94 1015.3
20260508123514 59 193 0.0 0.0 0.00 0.00 0.00 94 1015.2
20260508123011 59 193 0.0 0.0 0.00 0.00 0.00 94 1015.0